WA5LEE Weather Reports


Display with metric or nautical units.
time (UTC)temp
F
wind
direction
speed
MPH
gust
MPH
rain 1hr
in
rain 24hr
in
rain mn
in
humidity
%
barometer
mb
20260505000032 77 161 1.0 4.0 0.00 0.00 0.00 67 1010.3
20260504235510 78 270 0.0 3.0 0.00 0.00 0.00 68 1010.4
20260504235009 78 186 1.0 3.0 0.00 0.00 0.00 67 1010.3
20260504234524 78 229 0.0 3.0 0.00 0.00 0.00 66 1010.3
20260504234008 78 112 0.0 2.0 0.00 0.00 0.00 66 1010.2
20260504233506 78 104 1.0 4.0 0.00 0.00 0.00 66 1010.4
20260504233017 78 181 0.0 4.0 0.00 0.00 0.00 66 1010.3
20260504232507 78 202 1.0 5.0 0.00 0.00 0.00 65 1010.4
20260504231531 79 281 0.0 4.0 0.00 0.00 0.00 65 1010.6
20260504231010 79 141 0.0 4.0 0.00 0.00 0.00 65 1010.6
20260504230509 79 216 1.0 3.0 0.00 0.00 0.00 63 1010.6
20260504230024 79 205 0.0 4.0 0.00 0.00 0.00 64 1010.7
20260504225007 80 208 1.0 8.0 0.00 0.00 0.00 62 1010.7
20260504224526 80 71 0.0 5.0 0.00 0.00 0.00 63 1010.7
20260504224014 80 190 1.0 5.0 0.00 0.00 0.00 61 1010.8
20260504223504 80 211 1.0 3.0 0.00 0.00 0.00 62 1010.9
20260504223021 80 245 0.0 6.0 0.00 0.00 0.00 62 1010.7
20260504222508 80 222 0.0 6.0 0.00 0.00 0.00 62 1010.8
20260504222006 80 153 1.0 6.0 0.00 0.00 0.00 59 1010.9
20260504220020 82 104 0.0 4.0 0.00 0.00 0.00 58 1011.1
20260504215509 82 220 0.0 3.0 0.00 0.00 0.00 56 1011.1
20260504215009 82 201 0.0 6.0 0.00 0.00 0.00 59 1011.1
20260504214526 83 149 0.0 6.0 0.00 0.00 0.00 56 1011.2
20260504214011 83 207 0.0 4.0 0.00 0.00 0.00 53 1011.3
20260504213507 83 207 0.0 4.0 0.00 0.00 0.00 56 1011.3
20260504213028 84 187 0.0 4.0 0.00 0.00 0.00 55 1011.3
20260504212509 84 252 0.0 4.0 0.00 0.00 0.00 53 1011.4
20260504211528 85 240 0.0 3.0 0.00 0.00 0.00 52 1011.5
20260504211009 85 242 0.0 3.0 0.00 0.00 0.00 52 1011.5
20260504210507 85 245 0.0 4.0 0.00 0.00 0.00 54 1011.7
20260504205010 85 180 2.0 5.0 0.00 0.00 0.00 51 1011.8
20260504204521 85 149 0.0 2.0 0.00 0.00 0.00 53 1012.0
20260504204011 84 230 1.0 3.0 0.00 0.00 0.00 56 1012.0
20260504203513 84 127 0.0 3.0 0.00 0.00 0.00 55 1012.2
20260504203025 83 266 1.0 3.0 0.00 0.00 0.00 55 1012.2
20260504202513 83 94 0.0 4.0 0.00 0.00 0.00 56 1012.1
20260504202011 83 101 1.0 5.0 0.00 0.00 0.00 56 1012.5
20260504201519 83 108 0.0 5.0 0.00 0.00 0.00 54 1012.6
20260504200513 83 205 1.0 3.0 0.00 0.00 0.00 54 1012.7
20260504200026 83 205 0.0 4.0 0.00 0.00 0.00 57 1012.9
20260504195506 82 211 0.0 4.0 0.00 0.00 0.00 57 1013.0
20260504194008 81 230 1.0 4.0 0.00 0.00 0.00 57 1013.1
20260504193507 81 201 1.0 4.0 0.00 0.00 0.00 57 1013.1
20260504193026 80 258 1.0 2.0 0.00 0.00 0.00 57 1013.2
20260504192507 80 147 0.0 4.0 0.00 0.00 0.00 58 1013.3
20260504192009 80 176 1.0 4.0 0.00 0.00 0.00 57 1013.3
20260504191529 80 184 1.0 4.0 0.00 0.00 0.00 58 1013.5
20260504191011 80 149 0.0 5.0 0.00 0.00 0.00 58 1013.6
20260504190507 80 254 0.0 5.0 0.00 0.00 0.00 59 1013.6
20260504190024 80 269 0.0 4.0 0.00 0.00 0.00 58 1013.6
20260504185509 80 55 1.0 4.0 0.00 0.00 0.00 57 1013.7
20260504184533 81 225 2.0 5.0 0.00 0.00 0.00 55 1013.9
20260504183030 79 188 1.0 3.0 0.00 0.00 0.00 60 1014.0
20260504182509 79 105 0.0 4.0 0.00 0.00 0.00 60 1014.0
20260504182011 78 109 0.0 4.0 0.00 0.00 0.00 62 1013.8
20260504181528 78 229 0.0 4.0 0.00 0.00 0.00 61 1013.9
20260504181015 78 200 1.0 6.0 0.00 0.00 0.00 60 1014.1
20260504180511 78 224 1.0 6.0 0.00 0.00 0.00 61 1014.2
20260504180032 78 159 0.0 3.0 0.00 0.00 0.00 61 1014.2
20260504175509 78 65 1.0 7.0 0.00 0.00 0.00 61 1014.4
20260504174526 77 175 1.0 6.0 0.00 0.00 0.00 61 1014.5
20260504173507 77 202 1.0 5.0 0.00 0.00 0.00 62 1014.4
20260504171527 77 146 1.0 4.0 0.00 0.00 0.00 61 1014.9
20260504171014 77 286 1.0 6.0 0.00 0.00 0.00 61 1015.1
20260504170509 76 168 1.0 6.0 0.00 0.00 0.00 63 1015.0
20260504151003 71 227 0.0 4.0 0.00 0.00 0.00 69 1015.9
20260504150507 71 215 0.0 4.0 0.00 0.00 0.00 71 1015.9
20260504141010 65 182 0.0 2.0 0.00 0.00 0.00 79 1016.2
20260504140508 64 209 0.0 2.0 0.00 0.00 0.00 80 1016.1
20260504130510 0 0.0 0.0 0.00 0.00 0.00 1016.1
20260504110513 0 0.0 0.0 0.00 0.00 0.00 1015.5
20260504100510 0 0.0 0.0 0.00 0.00 0.00 1015.8
20260504082008 57 192 0.0 0.0 0.00 0.00 0.00 87 1016.4
20260504081514 57 191 0.0 0.0 0.00 0.00 0.00 86 1016.5
20260504081007 58 192 0.0 0.0 0.00 0.00 0.00 86 1016.6
20260504080507 58 192 0.0 0.0 0.00 0.00 0.00 86 1016.5
20260504050514 61 192 0.0 0.0 0.00 0.00 0.00 78 1018.3
20260504050020 61 192 0.0 0.0 0.00 0.00 0.00 78 1018.4
20260504045507 62 192 0.0 0.0 0.00 0.00 0.00 75 1018.3
20260504045010 62 192 0.0 0.0 0.00 0.00 0.00 78 1018.4
20260504044517 62 192 0.0 0.0 0.00 0.00 0.00 75 1018.4
20260504044008 62 192 0.0 0.0 0.00 0.00 0.00 75 1018.5
20260504043508 62 192 0.0 0.0 0.00 0.00 0.00 77 1018.5
20260504043026 63 192 0.0 0.0 0.00 0.00 0.00 72 1018.4
20260504042508 63 192 0.0 0.0 0.00 0.00 0.00 71 1018.4
20260504042009 63 191 0.0 0.0 0.00 0.00 0.00 73 1018.5
20260504041525 63 192 0.0 0.0 0.00 0.00 0.00 70 1018.5
20260504041004 64 191 0.0 0.0 0.00 0.00 0.00 75 1018.6
20260504040507 64 192 0.0 0.0 0.00 0.00 0.00 68 1018.6
20260504040030 64 192 0.0 0.0 0.00 0.00 0.00 68 1018.6
20260504035510 64 191 0.0 0.0 0.00 0.00 0.00 69 1018.7
20260504035007 65 192 0.0 2.0 0.00 0.00 0.00 70 1018.5
20260504034538 65 192 0.0 2.0 0.00 0.00 0.00 68 1018.5
20260504034008 65 173 0.0 2.0 0.00 0.00 0.00 67 1018.4
20260504033503 65 173 0.0 0.0 0.00 0.00 0.00 64 1018.5
20260504033027 66 173 0.0 0.0 0.00 0.00 0.00 66 1018.4
20260504032508 66 173 0.0 0.0 0.00 0.00 0.00 67 1018.4
20260504032011 66 173 0.0 0.0 0.00 0.00 0.00 64 1018.6
20260504031521 66 173 0.0 0.0 0.00 0.00 0.00 63 1018.5
20260504031006 66 173 0.0 0.0 0.00 0.00 0.00 63 1018.5
20260504030510 66 173 0.0 2.0 0.00 0.00 0.00 63 1018.4
20260504030025 66 173 0.0 2.0 0.00 0.00 0.00 63 1018.4
20260504025509 66 204 0.0 2.0 0.00 0.00 0.00 63 1018.3
20260504025011 66 200 0.0 2.0 0.00 0.00 0.00 65 1018.2
20260504024528 66 194 0.0 2.0 0.00 0.00 0.00 64 1018.1
20260504024005 67 204 0.0 0.0 0.00 0.00 0.00 66 1018.1
20260504023507 67 204 0.0 0.0 0.00 0.00 0.00 69 1018.1
20260504023028 67 204 0.0 0.0 0.00 0.00 0.00 68 1018.2
20260504022508 67 204 0.0 0.0 0.00 0.00 0.00 64 1018.2
20260504022008 67 204 0.0 0.0 0.00 0.00 0.00 64 1018.2
20260504021528 67 204 0.0 1.0 0.00 0.00 0.00 64 1018.1
20260504021008 67 204 0.0 1.0 0.00 0.00 0.00 63 1018.0
20260504020506 68 206 0.0 0.0 0.00 0.00 0.00 65 1018.0
20260504020025 68 206 0.0 2.0 0.00 0.00 0.00 61 1017.9
20260504015510 68 206 0.0 2.0 0.00 0.00 0.00 65 1017.8
20260504015013 68 203 0.0 2.0 0.00 0.00 0.00 67 1017.7
20260504014525 68 208 0.0 0.0 0.00 0.00 0.00 63 1017.7
20260504014011 69 208 0.0 0.0 0.00 0.00 0.00 59 1017.7
20260504013509 69 208 0.0 0.0 0.00 0.00 0.00 61 1017.7
20260504013019 69 208 0.0 0.0 0.00 0.00 0.00 61 1017.7
20260504012507 70 208 0.0 0.0 0.00 0.00 0.00 56 1017.6
20260504012008 70 208 0.0 0.0 0.00 0.00 0.00 55 1017.5
20260504011526 70 208 0.0 0.0 0.00 0.00 0.00 53 1017.5
20260504011007 71 208 0.0 0.0 0.00 0.00 0.00 61 1017.5
20260504010509 71 208 0.0 0.0 0.00 0.00 0.00 54 1017.5
20260504010028 71 208 0.0 0.0 0.00 0.00 0.00 53 1017.5
20260504005504 71 208 0.0 0.0 0.00 0.00 0.00 59 1017.5
20260504005010 72 208 0.0 0.0 0.00 0.00 0.00 54 1017.4
20260504004528 72 208 0.0 0.0 0.00 0.00 0.00 51 1017.5
20260504004008 73 208 0.0 0.0 0.00 0.00 0.00 49 1017.5
20260504003509 73 208 0.0 0.0 0.00 0.00 0.00 55 1017.5
20260504003026 73 208 0.0 0.0 0.00 0.00 0.00 48 1017.6
20260504002511 74 208 0.0 1.0 0.00 0.00 0.00 48 1017.6
20260504002006 74 208 0.0 1.0 0.00 0.00 0.00 58 1017.5
20260504001525 74 258 0.0 1.0 0.00 0.00 0.00 51 1017.3
20260504001010 74 219 0.0 2.0 0.00 0.00 0.00 50 1017.5
20260504000510 75 219 0.0 2.0 0.00 0.00 0.00 53 1017.7